Location: Morisset
(33.1080°S, 151.4871°E)
Time: 09:01:26
(UTC+00:00)

Nadezhda 4 Rocket - Pass Details

Date: 29 October 2020
Orbit: 951 x 991 km, 82.9° (Epoch: 27 November)

Event Time Altitude Azimuth Distance (km) Brightness Sun altitude
Rises 16:54:13 0° 182° (S) 3,688 7.5 -23.7°
Reaches altitude 10° 16:56:48 10° 178° (S) 2,729 6.8 -23.3°
Maximum altitude 17:02:58 61° 98° (E) 1,090 4.4 -22.2°
Drops below altitude 10° 17:09:01 10° 18° (NNE) 2,676 6.1 -21.2°
Sets 17:11:31 0° 14° (NNE) 3,611 6.8 -20.8°
